Location: Dugenta
(41.1333°N, 14.4500°E)
Time: 15:04:39
(UTC+00:00)

Okean 3 - Pass Details

Date: 03 March 2021
Orbit: 576 x 600 km, 82.5° (Epoch: 21 April)

Event Time Altitude Azimuth Distance (km) Brightness Sun altitude
Rises 18:37:29 0° 358° (N) 2,832 7.1 -19.9°
Reaches altitude 10° 18:39:46 10° 5° (N) 1,930 6.1 -20.4°
Enters shadow 18:42:44 36° 37° (NE) 948 4.2 -20.9°
